Location: Beau Repaire
(50.6144°N, 4.0551°E)
Time: 20:19:56
(UTC+00:00)

Cosmos 2219 Rocket - Pass Details

Date: 15 May 2026
Orbit: 826 x 846 km, 71.0° (Epoch: 7 June)

Event Time Altitude Azimuth Distance (km) Brightness Sun altitude
Rises 20:13:10 0° 332° (NNW) 3,403 6.9 -6.9°
Reaches altitude 10° 20:15:53 10° 343° (NNW) 2,469 5.7 -7.2°
Maximum altitude 20:20:56 32° 45° (NE) 1,422 3.4 -7.8°
Drops below altitude 10° 20:25:58 10° 108° (ESE) 2,467 4.1 -8.3°
Enters shadow 20:26:31 - 111° (ESE) 2,653 4.2 -8.4°
